Back to catalog

OBJECT B

AliveSSO
NORAD 100144·UNKNOWN·🇨🇳 China

Launched Jul 23, 2026 from Jiuquan Satellite Launch Center

Loading…

Next Passes (next 24 hours)

TLE

FreshSource: Space-Track

Epoch: Sep 14, 2026, 07:56 UTC

1 A0144U 26170B   26257.33098570  .00001167  00000-0  80645-4 0  9994
2 A0144  97.5590 263.2745 0017022  97.4677 262.8486 15.07557354  7899

Track OBJECT B in real time with AllMySat

Download on the App Store